GW4183 Weather Reports


time (UTC)temp
C
wind
direction
speed
KPH
gust
KPH
rain 1hr
cm
rain 24hr
cm
rain mn
cm
humidity
%
barometer
mb
20260508211709 25 352 8.0 12.9 0.00 0.00 0.00 26 1010.0
20260508211205 24 337 1.6 4.8 0.00 0.00 0.00 27 1010.2
20260508210703 24 10 3.2 6.4 0.00 0.00 0.00 25 1010.4
20260508210200 24 350 3.2 3.2 0.00 0.00 0.00 26 1010.4
20260508205656 24 340 4.8 6.4 0.00 0.00 0.00 26 1010.5
20260508205153 23 27 8.0 11.3 0.00 0.00 0.00 25 1010.4
20260508204649 24 350 3.2 6.4 0.00 0.00 0.00 24 1010.5
20260508204145 23 24 4.8 6.4 0.00 0.00 0.00 26 1010.5
20260508203642 23 344 4.8 9.7 0.00 0.00 0.00 25 1010.4
20260508203138 25 2 4.8 11.3 0.00 0.00 0.00 25 1010.7
20260508202634 24 354 6.4 11.3 0.00 0.00 0.00 24 1010.6
20260508202131 24 335 4.8 6.4 0.00 0.00 0.00 25 1010.6
20260508201628 23 18 3.2 4.8 0.00 0.00 0.00 25 1010.6
20260508201125 23 14 6.4 11.3 0.00 0.00 0.00 25 1010.7
20260508200622 23 340 3.2 9.7 0.00 0.00 0.00 26 1010.8
20260508200117 23 14 3.2 4.8 0.00 0.00 0.00 26 1010.9
20260508195614 23 3 4.8 9.7 0.00 0.00 0.00 26 1010.9
20260508195111 23 8 3.2 4.8 0.00 0.00 0.00 26 1010.8
20260508194607 24 31 4.8 17.7 0.00 0.00 0.00 26 1010.7
20260508194105 24 316 1.6 4.8 0.00 0.00 0.00 24 1010.9
20260508193601 24 340 8.0 12.9 0.00 0.00 0.00 26 1010.8
20260508193058 24 347 4.8 11.3 0.00 0.00 0.00 26 1010.9
20260508192554 23 7 4.8 6.4 0.00 0.00 0.00 25 1011.0
20260508192052 24 352 3.2 6.4 0.00 0.00 0.00 25 1011.2
20260508191548 23 20 9.7 16.1 0.00 0.00 0.00 25 1011.3
20260508191045 22 355 6.4 6.4 0.00 0.00 0.00 28 1011.4
20260508190542 23 43 4.8 9.7 0.00 0.00 0.00 30 1011.2
20260508190038 23 0 3.2 11.3 0.00 0.00 0.00 30 1011.2
20260508185536 23 22 6.4 9.7 0.00 0.00 0.00 31 1011.0
20260508185033 22 353 3.2 6.4 0.00 0.00 0.00 32 1011.0
20260508184531 22 351 1.6 3.2 0.00 0.00 0.00 34 1011.2
20260508184027 22 32 4.8 6.4 0.00 0.00 0.00 33 1011.4
20260508183524 22 16 4.8 6.4 0.00 0.00 0.00 31 1011.5
20260508183020 23 16 1.6 4.8 0.00 0.00 0.00 32 1011.4
20260508182517 23 14 1.6 4.8 0.00 0.00 0.00 32 1011.5
20260508182013 23 340 1.6 4.8 0.00 0.00 0.00 34 1011.6
20260508181509 23 14 4.8 6.4 0.00 0.00 0.00 34 1011.5
20260508181007 22 27 0.0 9.7 0.00 0.00 0.00 33 1011.6
20260508180503 22 2 6.4 12.9 0.00 0.00 0.00 33 1011.8
20260508175959 22 351 3.2 12.9 0.00 0.00 0.00 34 1011.8
20260508175455 22 346 3.2 6.4 0.00 0.00 0.00 35 1011.8
20260508174953 22 1 3.2 6.4 0.00 0.00 0.00 33 1011.8
20260508174451 22 35 3.2 12.9 0.00 0.00 0.00 33 1011.8
20260508173947 22 340 1.6 6.4 0.00 0.00 0.00 33 1011.9
20260508173445 22 332 1.6 4.8 0.00 0.00 0.00 31 1012.1
20260508172940 22 4 1.6 4.8 0.00 0.00 0.00 33 1012.1
20260508172438 22 313 1.6 3.2 0.00 0.00 0.00 38 1012.1
20260508171934 22 333 1.6 3.2 0.00 0.00 0.00 33 1012.1
20260508171430 21 249 1.6 4.8 0.00 0.00 0.00 34 1012.2
20260508170927 21 0 3.2 9.7 0.00 0.00 0.00 32 1012.3
20260508170425 21 15 3.2 9.7 0.00 0.00 0.00 32 1012.2
20260508165921 21 331 1.6 3.2 0.00 0.00 0.00 33 1012.4
20260508165419 21 9 1.6 3.2 0.00 0.00 0.00 33 1012.5
20260508164915 21 271 4.8 4.8 0.00 0.00 0.00 33 1012.7
20260508164412 20 342 3.2 3.2 0.00 0.00 0.00 33 1012.5
20260508163909 21 294 1.6 4.8 0.00 0.00 0.00 32 1012.7
20260508163407 21 313 0.0 4.8 0.00 0.00 0.00 33 1012.5
20260508162902 21 15 1.6 3.2 0.00 0.00 0.00 31 1012.7
20260508162400 21 348 0.0 4.8 0.00 0.00 0.00 33 1012.7
20260508161857 20 349 1.6 6.4 0.00 0.00 0.00 33 1012.8
20260508161354 20 350 1.6 4.8 0.00 0.00 0.00 32 1012.4
20260508160851 20 348 1.6 4.8 0.00 0.00 0.00 33 1012.5
20260508160350 20 350 0.0 3.2 0.00 0.00 0.00 32 1012.5
20260508155845 20 342 0.0 1.6 0.00 0.00 0.00 34 1012.4
20260508155343 20 328 1.6 3.2 0.00 0.00 0.00 32 1012.8
20260508154840 20 341 1.6 3.2 0.00 0.00 0.00 34 1012.5
20260508154338 20 339 0.0 1.6 0.00 0.00 0.00 31 1012.8
20260508153834 18 347 0.0 1.6 0.00 0.00 0.00 34 1012.8
20260508153331 18 346 0.0 1.6 0.00 0.00 0.00 35 1012.8
20260508152827 17 324 0.0 0.0 0.00 0.00 0.00 39 1012.8
20260508152324 17 324 0.0 1.6 0.00 0.00 0.00 39 1012.9
20260508151820 17 324 0.0 0.0 0.00 0.00 0.00 41 1012.5
20260508151317 17 328 0.0 1.6 0.00 0.00 0.00 39 1012.8
20260508150813 17 329 0.0 0.0 0.00 0.00 0.00 39 1012.5
20260508150310 17 329 0.0 1.6 0.00 0.00 0.00 38 1012.4
20260508145807 16 329 0.0 1.6 0.00 0.00 0.00 39 1012.4
20260508145306 16 329 0.0 1.6 0.00 0.00 0.00 43 1012.5
20260508144759 16 329 0.0 1.6 0.00 0.00 0.00 41 1012.7
20260508144257 16 329 0.0 0.0 0.00 0.00 0.00 40 1012.3
20260508143755 16 336 0.0 1.6 0.00 0.00 0.00 42 1012.4
20260508143252 15 337 0.0 0.0 0.00 0.00 0.00 42 1012.7
20260508142748 15 348 0.0 0.0 0.00 0.00 0.00 44 1012.5
20260508142245 15 348 0.0 1.6 0.00 0.00 0.00 45 1012.4
20260508141741 15 338 0.0 1.6 0.00 0.00 0.00 45 1012.8
20260508141239 15 344 1.6 1.6 0.00 0.00 0.00 45 1012.7
20260508140736 14 355 0.0 1.6 0.00 0.00 0.00 45 1012.7
20260508140233 14 326 0.0 1.6 0.00 0.00 0.00 45 1012.8
20260508135729 14 359 0.0 1.6 0.00 0.00 0.00 46 1012.4
20260508135225 13 11 1.6 3.2 0.00 0.00 0.00 44 1012.5
20260508134715 13 352 1.6 3.2 0.00 0.00 0.00 46 1012.7
20260508134213 13 3 1.6 1.6 0.00 0.00 0.00 49 1012.8
20260508133710 13 349 1.6 1.6 0.00 0.00 0.00 49 1012.8
20260508133207 13 341 3.2 3.2 0.00 0.00 0.00 47 1012.5
20260508132704 13 354 1.6 1.6 0.00 0.00 0.00 47 1012.5
20260508132201 12 342 1.6 1.6 0.00 0.00 0.00 49 1012.3
20260508131657 12 11 1.6 3.2 0.00 0.00 0.00 50 1012.4
20260508131153 12 3 1.6 3.2 0.00 0.00 0.00 50 1012.5
20260508130650 12 20 3.2 3.2 0.00 0.00 0.00 49 1012.3
20260508130147 12 347 1.6 4.8 0.00 0.00 0.00 49 1012.5
20260508125643 11 7 0.0 1.6 0.00 0.00 0.00 48 1012.2
20260508125140 10 350 0.0 0.0 0.00 0.00 0.00 52 1012.1
20260508124638 10 350 0.0 0.0 0.00 0.00 0.00 54 1012.0
20260508124135 10 350 0.0 0.0 0.00 0.00 0.00 56 1011.8
20260508123633 9 350 0.0 0.0 0.00 0.00 0.00 59 1012.0
20260508123130 9 350 0.0 1.6 0.00 0.00 0.00 59 1011.8
20260508122626 10 350 0.0 0.0 0.00 0.00 0.00 54 1012.1
20260508122123 10 350 1.6 1.6 0.00 0.00 0.00 54 1012.1
20260508121622 9 351 0.0 1.6 0.00 0.00 0.00 53 1012.0
20260508121120 9 351 0.0 1.6 0.00 0.00 0.00 55 1012.0
20260508120617 9 350 0.0 1.6 0.00 0.00 0.00 54 1011.8
20260508120115 9 351 0.0 1.6 0.00 0.00 0.00 53 1011.8
20260508115612 9 351 1.6 1.6 0.00 0.00 0.00 54 1011.7
20260508115109 9 5 1.6 1.6 0.00 0.00 0.00 53 1011.7
20260508114606 9 358 1.6 1.6 0.00 0.00 0.00 53 1011.5
20260508114101 9 2 1.6 1.6 0.00 0.00 0.00 53 1011.7
20260508113559 9 4 1.6 1.6 0.00 0.00 0.00 53 1011.6
20260508113057 9 15 1.6 1.6 0.00 0.00 0.00 53 1011.5
20260508112553 9 353 1.6 3.2 0.00 0.00 0.00 53 1011.6
20260508112050 10 346 1.6 1.6 0.00 0.00 0.00 51 1011.4
20260508111547 10 356 0.0 1.6 0.00 0.00 0.00 50 1011.3
20260508111044 10 356 0.0 1.6 0.00 0.00 0.00 49 1011.4
20260508110542 10 356 0.0 1.6 0.00 0.00 0.00 49 1011.5
20260508110038 10 356 0.0 1.6 0.00 0.00 0.00 50 1011.2
20260508105533 10 353 0.0 1.6 0.00 0.00 0.00 50 1011.4
20260508105031 10 0 0.0 1.6 0.00 0.00 0.00 49 1011.4
20260508104528 10 7 1.6 3.2 0.00 0.00 0.00 49 1011.2
20260508104024 10 339 1.6 4.8 0.00 0.00 0.00 48 1011.4
20260508103521 10 0 0.0 1.6 0.00 0.00 0.00 47 1011.0
20260508103019 10 0 0.0 0.0 0.00 0.00 0.00 51 1010.9
20260508102517 10 359 0.0 0.0 0.00 0.00 0.00 51 1010.9
20260508102014 10 359 0.0 1.6 0.00 0.00 0.00 51 1010.8
20260508101511 10 359 0.0 1.6 0.00 0.00 0.00 51 1010.9
20260508101008 10 359 0.0 1.6 0.00 0.00 0.00 51 1010.8
20260508100507 10 359 0.0 1.6 0.00 0.00 0.00 51 1010.7
20260508100003 10 0 1.6 1.6 0.00 0.00 0.00 51 1010.6
20260508095500 11 4 0.0 1.6 0.00 0.00 0.00 50 1010.6
20260508094957 11 6 0.0 1.6 0.00 0.00 0.00 49 1010.6
20260508094454 11 5 1.6 1.6 0.00 0.00 0.00 48 1010.5
20260508093950 11 1 0.0 1.6 0.00 0.00 0.00 47 1010.6
20260508093448 11 5 0.0 3.2 0.00 0.00 0.00 46 1010.7
20260508092945 11 0 0.0 1.6 0.00 0.00 0.00 45 1010.7
20260508092443 11 4 0.0 1.6 0.00 0.00 0.00 45 1010.7
20260508091942 11 11 1.6 3.2 0.00 0.00 0.00 45 1010.7
20260508091438 11 11 1.6 1.6 0.00 0.00 0.00 47 1010.5
20260508090935 11 1 0.0 1.6 0.00 0.00 0.00 47 1010.8
20260508090434 11 2 1.6 1.6 0.00 0.00 0.00 47 1010.8
20260508085929 11 2 0.0 1.6 0.00 0.00 0.00 48 1010.8
20260508085426 11 7 0.0 1.6 0.00 0.00 0.00 48 1010.8
20260508084923 11 3 1.6 1.6 0.00 0.00 0.00 49 1010.7
20260508084419 12 5 0.0 1.6 0.00 0.00 0.00 47 1010.8
20260508083918 12 10 1.6 3.2 0.00 0.00 0.00 47 1010.8
20260508083415 12 9 0.0 1.6 0.00 0.00 0.00 49 1010.9
20260508082914 12 1 0.0 1.6 0.00 0.00 0.00 49 1010.9
20260508082412 12 358 1.6 1.6 0.00 0.00 0.00 49 1011.0
20260508081910 12 4 1.6 1.6 0.00 0.00 0.00 48 1011.0
20260508081406 12 4 1.6 1.6 0.00 0.00 0.00 48 1010.9
20260508080902 12 357 0.0 1.6 0.00 0.00 0.00 47 1011.2
20260508080401 12 5 1.6 1.6 0.00 0.00 0.00 45 1010.9
20260508075857 12 22 1.6 3.2 0.00 0.00 0.00 43 1011.0
20260508075354 12 15 3.2 3.2 0.00 0.00 0.00 43 1011.3
20260508074852 13 1 1.6 1.6 0.00 0.00 0.00 43 1011.3
20260508074348 13 2 0.0 1.6 0.00 0.00 0.00 43 1011.3
20260508073846 13 5 1.6 3.2 0.00 0.00 0.00 42 1011.0
20260508073344 13 19 0.0 3.2 0.00 0.00 0.00 41 1011.3
20260508072840 13 42 1.6 4.8 0.00 0.00 0.00 40 1011.4
20260508072336 13 93 1.6 4.8 0.00 0.00 0.00 40 1011.3
20260508071834 14 137 4.8 6.4 0.00 0.00 0.00 38 1011.3
20260508071332 14 12 1.6 6.4 0.00 0.00 0.00 39 1011.3
20260508070829 14 353 1.6 11.3 0.00 0.00 0.00 39 1011.4
20260508070327 13 49 4.8 6.4 0.00 0.00 0.00 39 1011.7
20260508065824 13 356 0.0 3.2 0.00 0.00 0.00 40 1011.6
20260508065322 13 340 1.6 3.2 0.00 0.00 0.00 42 1011.6
20260508064821 13 14 1.6 3.2 0.00 0.00 0.00 44 1011.6
20260508064318 12 5 1.6 4.8 0.00 0.00 0.00 46 1011.5
20260508063815 12 6 1.6 1.6 0.00 0.00 0.00 48 1011.6
20260508063313 12 1 1.6 1.6 0.00 0.00 0.00 49 1011.8
20260508062810 13 1 0.0 1.6 0.00 0.00 0.00 49 1011.8
20260508062308 13 358 0.0 1.6 0.00 0.00 0.00 47 1011.8
20260508061804 13 358 0.0 1.6 0.00 0.00 0.00 46 1011.8
20260508061301 13 2 0.0 1.6 0.00 0.00 0.00 43 1011.7
20260508060758 13 2 1.6 1.6 0.00 0.00 0.00 43 1011.9
20260508060256 13 1 1.6 1.6 0.00 0.00 0.00 42 1011.7
20260508055751 14 1 0.0 1.6 0.00 0.00 0.00 41 1011.6
20260508055248 14 4 1.6 1.6 0.00 0.00 0.00 41 1011.5
20260508054744 14 6 0.0 1.6 0.00 0.00 0.00 40 1011.6
20260508054243 14 7 1.6 3.2 0.00 0.00 0.00 39 1011.5
20260508053739 14 58 0.0 1.6 0.00 0.00 0.00 39 1011.4
20260508053236 14 341 0.0 3.2 0.00 0.00 0.00 40 1011.3
20260508052734 14 353 0.0 1.6 0.00 0.00 0.00 40 1011.3
20260508052231 14 354 0.0 1.6 0.00 0.00 0.00 40 1011.4
20260508051727 15 354 0.0 1.6 0.00 0.00 0.00 40 1011.5
20260508051223 15 1 0.0 1.6 0.00 0.00 0.00 38 1011.3
20260508050719 15 341 1.6 3.2 0.00 0.00 0.00 38 1011.3
20260508050217 15 353 0.0 4.8 0.00 0.00 0.00 38 1011.3
20260508045717 15 2 0.0 3.2 0.00 0.00 0.00 38 1011.2
20260508045216 15 352 1.6 4.8 0.00 0.00 0.00 37 1011.4
20260508044713 15 73 1.6 3.2 0.00 0.00 0.00 37 1011.2
20260508044209 15 40 1.6 3.2 0.00 0.00 0.00 37 1011.2
20260508043705 15 212 1.6 4.8 0.00 0.00 0.00 36 1011.4
20260508043203 15 50 1.6 6.4 0.00 0.00 0.00 37 1011.4
20260508042659 15 41 1.6 4.8 0.00 0.00 0.00 37 1011.4
20260508042157 15 3 0.0 1.6 0.00 0.00 0.00 36 1011.3
20260508041653 15 24 3.2 4.8 0.00 0.00 0.00 36 1011.3
20260508041150 16 61 3.2 4.8 0.00 0.00 0.00 35 1011.3
20260508040646 16 34 1.6 4.8 0.00 0.00 0.00 35 1011.5
20260508040144 15 25 1.6 4.8 0.00 0.00 0.00 35 1011.4
20260508035641 16 35 1.6 4.8 0.00 0.00 0.00 35 1011.5
20260508035138 16 31 1.6 3.2 0.00 0.00 0.00 34 1011.4
20260508034635 16 359 0.0 4.8 0.00 0.00 0.00 35 1011.5
20260508034132 16 23 1.6 1.6 0.00 0.00 0.00 34 1011.4
20260508033630 16 75 3.2 4.8 0.00 0.00 0.00 34 1011.4
20260508033128 16 327 1.6 4.8 0.00 0.00 0.00 34 1011.3
20260508032624 16 127 3.2 4.8 0.00 0.00 0.00 33 1011.4
20260508032122 16 19 1.6 3.2 0.00 0.00 0.00 33 1011.2
20260508031619 16 134 3.2 6.4 0.00 0.00 0.00 33 1011.2
20260508031115 16 67 3.2 4.8 0.00 0.00 0.00 32 1011.2
20260508030611 16 341 1.6 4.8 0.00 0.00 0.00 33 1011.3
20260508030109 16 14 1.6 1.6 0.00 0.00 0.00 33 1011.2
20260508025605 16 359 1.6 3.2 0.00 0.00 0.00 33 1011.2
20260508025102 16 350 0.0 1.6 0.00 0.00 0.00 33 1011.0
20260508024558 16 47 1.6 4.8 0.00 0.00 0.00 33 1011.0
20260508024055 16 341 0.0 4.8 0.00 0.00 0.00 33 1011.2
20260508023552 16 345 0.0 1.6 0.00 0.00 0.00 34 1010.9
20260508023049 17 347 0.0 1.6 0.00 0.00 0.00 34 1010.7
20260508022545 17 39 1.6 4.8 0.00 0.00 0.00 33 1010.8
20260508022042 17 7 1.6 1.6 0.00 0.00 0.00 33 1010.7
20260508021538 17 42 1.6 3.2 0.00 0.00 0.00 33 1010.8
20260508021034 17 2 0.0 1.6 0.00 0.00 0.00 33 1010.6
20260508020532 17 350 0.0 1.6 0.00 0.00 0.00 34 1010.6
20260508020029 17 344 0.0 1.6 0.00 0.00 0.00 33 1010.6
20260508015526 17 358 0.0 1.6 0.00 0.00 0.00 34 1010.5
20260508015023 17 358 0.0 0.0 0.00 0.00 0.00 35 1010.6
20260508014520 17 0 0.0 0.0 0.00 0.00 0.00 35 1010.4
20260508014016 17 0 0.0 0.0 0.00 0.00 0.00 34 1010.5
20260508013512 17 0 0.0 0.0 0.00 0.00 0.00 32 1010.5
20260508013010 18 0 0.0 0.0 0.00 0.00 0.00 31 1010.3
20260508012507 18 0 0.0 0.0 0.00 0.00 0.00 31 1010.3
20260508012004 18 0 0.0 0.0 0.00 0.00 0.00 31 1010.4
20260508011502 18 0 0.0 0.0 0.00 0.00 0.00 31 1010.3
20260508010959 19 1 0.0 0.0 0.00 0.00 0.00 30 1010.1
20260508010456 19 0 0.0 0.0 0.00 0.00 0.00 29 1010.1
20260508005953 20 0 0.0 0.0 0.00 0.00 0.00 29 1010.2
20260508005450 20 0 0.0 0.0 0.00 0.00 0.00 29 1010.2
20260508004946 20 0 0.0 0.0 0.00 0.00 0.00 28 1010.1
20260508004443 21 0 0.0 1.6 0.00 0.00 0.00 28 1010.2
20260508003939 21 346 0.0 1.6 0.00 0.00 0.00 27 1010.2
20260508003436 21 345 0.0 1.6 0.00 0.00 0.00 27 1010.2
20260508002933 21 344 1.6 1.6 0.00 0.00 0.00 25 1010.4
20260508002430 21 341 0.0 1.6 0.00 0.00 0.00 26 1010.2
20260508001926 21 341 0.0 1.6 0.00 0.00 0.00 26 1010.1
20260508001423 22 10 1.6 1.6 0.00 0.00 0.00 25 1010.2
20260508000919 22 350 1.6 1.6 0.00 0.00 0.00 25 1010.1
20260508000415 22 347 1.6 3.2 0.00 0.00 0.00 25 1010.2
20260507235912 22 335 1.6 1.6 0.00 0.00 0.00 25 1010.1
20260507235409 22 1 1.6 1.6 0.00 0.00 0.00 25 1010.1
20260507234906 22 347 0.0 1.6 0.00 0.00 0.00 26 1010.2
20260507234403 22 346 0.0 1.6 0.00 0.00 0.00 25 1010.4
20260507233859 22 333 0.0 1.6 0.00 0.00 0.00 25 1010.2
20260507233356 22 356 0.0 1.6 0.00 0.00 0.00 24 1010.2
20260507232855 22 348 0.0 1.6 0.00 0.00 0.00 26 1010.3
20260507232351 22 343 0.0 0.0 0.00 0.00 0.00 25 1010.3
20260507231849 22 343 0.0 3.2 0.00 0.00 0.00 26 1010.4
20260507231345 22 344 0.0 1.6 0.00 0.00 0.00 25 1010.2
20260507230841 22 5 1.6 4.8 0.00 0.00 0.00 24 1010.3
20260507230339 23 350 1.6 1.6 0.00 0.00 0.00 25 1010.4
20260507225838 23 348 1.6 3.2 0.00 0.00 0.00 23 1010.2
20260507225334 23 329 3.2 3.2 0.00 0.00 0.00 24 1010.3
20260507224831 23 21 1.6 4.8 0.00 0.00 0.00 25 1010.4
20260507224328 23 267 3.2 3.2 0.00 0.00 0.00 23 1010.5
20260507223824 23 277 1.6 3.2 0.00 0.00 0.00 25 1010.5
20260507223320 23 266 4.8 6.4 0.00 0.00 0.00 22 1010.4
20260507222817 23 240 6.4 9.7 0.00 0.00 0.00 23 1010.3
20260507222313 24 337 0.0 1.6 0.00 0.00 0.00 24 1010.5
20260507221811 24 339 0.0 1.6 0.00 0.00 0.00 23 1010.4
20260507221307 24 5 1.6 4.8 0.00 0.00 0.00 23 1010.4
20260507220803 23 343 1.6 6.4 0.00 0.00 0.00 24 1010.6
20260507220302 23 345 3.2 3.2 0.00 0.00 0.00 23 1010.5
20260507215758 23 30 3.2 4.8 0.00 0.00 0.00 23 1010.6
20260507215255 23 14 3.2 4.8 0.00 0.00 0.00 23 1010.6
20260507214752 23 336 1.6 3.2 0.00 0.00 0.00 24 1010.5
20260507214249 23 355 3.2 4.8 0.00 0.00 0.00 24 1010.7
20260507213744 23 12 3.2 4.8 0.00 0.00 0.00 24 1010.6
20260507213242 24 3 4.8 6.4 0.00 0.00 0.00 24 1010.4
20260507212738 23 4 1.6 3.2 0.00 0.00 0.00 23 1010.7
20260507212235 23 335 1.6 3.2 0.00 0.00 0.00 25 1010.6